HAZ1756 ZHCC-ZUUU

Flight info

Callsign HAZ1756
Flight time 2h 19m
Altitude 36100
Route DUDBI W37 UDUMI W80 URGEG W231 EKOKA
Aircraft A320/M-SDE3FGHIRWY/LB1

Departure

Time 2026-05-06 01:19
Airport Zhengzhou Xinzheng International Airport (ZHCC)

Arrival

Time 2026-05-06 03:39
Airport Chengdu Shuangliu International Airport (ZUUU)
Time Latitude Longitude Altitude Speed Heading
2026-05-06 01:03 34.53122 113.85307 490 ft 0 kts 202°
2026-05-06 01:11 34.53132 113.85313 490 ft 2 kts 202°
2026-05-06 01:11 34.53146 113.85319 490 ft 2 kts 202°
2026-05-06 01:11 34.53158 113.85329 490 ft 2 kts 244°
2026-05-06 01:11 34.53160 113.85347 490 ft 1 kts 285°
2026-05-06 01:12 34.53158 113.85354 490 ft 1 kts 297°
2026-05-06 01:12 34.53156 113.85358 490 ft 0 kts 294°
2026-05-06 01:13 34.53157 113.85357 490 ft 0 kts 294°
2026-05-06 01:14 34.53165 113.85332 490 ft 3 kts 293°
2026-05-06 01:14 34.53177 113.85300 491 ft 4 kts 292°
2026-05-06 01:14 34.53191 113.85255 492 ft 6 kts 291°
2026-05-06 01:15 34.53213 113.85208 493 ft 5 kts 326°
2026-05-06 01:15 34.53254 113.85205 493 ft 6 kts 15°
2026-05-06 01:15 34.53308 113.85231 492 ft 9 kts 17°
2026-05-06 01:15 34.53373 113.85205 493 ft 11 kts 304°
2026-05-06 01:16 34.53407 113.85110 495 ft 13 kts 294°
2026-05-06 01:16 34.53448 113.84993 497 ft 16 kts 292°
2026-05-06 01:16 34.53495 113.84852 500 ft 19 kts 292°
2026-05-06 01:16 34.53548 113.84698 503 ft 21 kts 291°
2026-05-06 01:17 34.53602 113.84538 506 ft 19 kts 292°
2026-05-06 01:17 34.53651 113.84392 508 ft 17 kts 291°
2026-05-06 01:17 34.53697 113.84261 509 ft 15 kts 292°
2026-05-06 01:17 34.53738 113.84139 508 ft 16 kts 291°
2026-05-06 01:18 34.53793 113.84016 507 ft 17 kts 330°
2026-05-06 01:18 34.53905 113.84043 506 ft 17 kts 32°
2026-05-06 01:18 34.53915 113.84167 506 ft 16 kts 112°
2026-05-06 01:18 34.53847 113.84368 509 ft 53 kts 111°
2026-05-06 01:19 34.53614 113.85055 496 ft 120 kts 113°
2026-05-06 01:19 34.53225 113.86210 508 ft 170 kts 114°
2026-05-06 01:19 34.52828 113.87521 1137 ft 166 kts 112°
2026-05-06 01:19 34.52433 113.88824 1724 ft 164 kts 118°
2026-05-06 01:20 34.51968 113.90066 2254 ft 168 kts 121°
2026-05-06 01:20 34.51454 113.91402 2620 ft 182 kts 122°
2026-05-06 01:20 34.50913 113.92844 2945 ft 198 kts 121°
2026-05-06 01:20 34.50333 113.94442 3254 ft 218 kts 120°
2026-05-06 01:21 34.49702 113.96210 3586 ft 238 kts 119°
2026-05-06 01:21 34.49033 113.98109 3995 ft 256 kts 118°
2026-05-06 01:21 34.48313 114.00174 4423 ft 273 kts 117°
2026-05-06 01:21 34.47576 114.02301 5068 ft 280 kts 116°
2026-05-06 01:22 34.46703 114.04406 5794 ft 278 kts 131°
2026-05-06 01:22 34.45255 114.05897 6489 ft 274 kts 157°
2026-05-06 01:22 34.43441 114.06468 7172 ft 273 kts 176°
2026-05-06 01:22 34.41559 114.06692 7838 ft 278 kts 176°
2026-05-06 01:23 34.39623 114.06916 8509 ft 283 kts 176°
2026-05-06 01:23 34.37653 114.07153 9185 ft 287 kts 176°
2026-05-06 01:23 34.35652 114.07400 9635 ft 290 kts 176°
2026-05-06 01:23 34.33644 114.07673 9814 ft 293 kts 173°
2026-05-06 01:24 34.31644 114.08272 9706 ft 294 kts 162°
2026-05-06 01:24 34.29774 114.09235 9664 ft 295 kts 157°
2026-05-06 01:24 34.27932 114.10317 9648 ft 296 kts 156°
2026-05-06 01:24 34.26088 114.11413 9638 ft 295 kts 156°
2026-05-06 01:25 34.24226 114.12510 9648 ft 297 kts 156°
2026-05-06 01:25 34.22343 114.13599 9988 ft 304 kts 156°
2026-05-06 01:25 34.20398 114.14719 10466 ft 316 kts 156°
2026-05-06 01:25 34.18369 114.15885 10773 ft 334 kts 156°
2026-05-06 01:26 34.16214 114.17120 11063 ft 350 kts 156°
2026-05-06 01:26 34.13959 114.18416 11387 ft 365 kts 156°
2026-05-06 01:26 34.11671 114.19733 11923 ft 371 kts 156°
2026-05-06 01:26 34.09327 114.21081 12536 ft 374 kts 155°
2026-05-06 01:27 34.06965 114.22440 13121 ft 378 kts 156°
2026-05-06 01:27 34.04595 114.23801 13692 ft 382 kts 156°
2026-05-06 01:27 34.02173 114.25193 14271 ft 385 kts 156°
2026-05-06 01:27 33.99739 114.26592 14826 ft 389 kts 156°
2026-05-06 01:28 33.97282 114.27999 15359 ft 392 kts 156°
2026-05-06 01:28 33.94834 114.29401 15903 ft 394 kts 156°
2026-05-06 01:28 33.92347 114.30826 16423 ft 397 kts 156°
2026-05-06 01:28 33.89835 114.32263 16939 ft 399 kts 156°
2026-05-06 01:29 33.87341 114.33688 17441 ft 402 kts 156°
2026-05-06 01:29 33.84800 114.35139 17947 ft 403 kts 157°
2026-05-06 01:29 33.82255 114.36594 18401 ft 407 kts 157°
2026-05-06 01:29 33.79710 114.38045 18839 ft 410 kts 157°
2026-05-06 01:30 33.77135 114.39512 19275 ft 413 kts 158°
2026-05-06 01:30 33.74499 114.41013 19721 ft 415 kts 158°
2026-05-06 01:30 33.71904 114.42491 20152 ft 418 kts 158°
2026-05-06 01:30 33.69260 114.43995 20579 ft 420 kts 158°
2026-05-06 01:31 33.66623 114.45496 20984 ft 424 kts 158°
2026-05-06 01:31 33.63957 114.47012 21381 ft 427 kts 158°
2026-05-06 01:31 33.61243 114.48551 21790 ft 429 kts 158°
2026-05-06 01:31 33.58557 114.50075 22188 ft 432 kts 158°
2026-05-06 01:32 33.55820 114.51626 22567 ft 434 kts 158°
2026-05-06 01:32 33.53100 114.53168 22939 ft 437 kts 158°
2026-05-06 01:32 33.50333 114.54733 23302 ft 440 kts 158°
2026-05-06 01:32 33.47542 114.56314 23653 ft 443 kts 158°
2026-05-06 01:33 33.44774 114.57877 24016 ft 445 kts 158°
2026-05-06 01:33 33.41973 114.59460 24360 ft 448 kts 158°
2026-05-06 01:33 33.39143 114.61062 24688 ft 451 kts 158°
2026-05-06 01:33 33.36286 114.62675 25000 ft 454 kts 158°
2026-05-06 01:34 33.33419 114.64294 25335 ft 457 kts 158°
2026-05-06 01:34 33.30576 114.65900 25651 ft 459 kts 158°
2026-05-06 01:34 33.27655 114.67544 25975 ft 461 kts 158°
2026-05-06 01:34 33.24758 114.69170 26269 ft 463 kts 159°
2026-05-06 01:35 33.21750 114.70468 26522 ft 461 kts 169°
2026-05-06 01:35 33.18606 114.71107 26817 ft 457 kts 179°
2026-05-06 01:35 33.15451 114.71100 27119 ft 454 kts 188°
2026-05-06 01:35 33.12288 114.70799 27382 ft 455 kts 189°
2026-05-06 01:36 33.09127 114.70458 27616 ft 458 kts 189°
2026-05-06 01:36 33.05963 114.70118 27882 ft 460 kts 189°
2026-05-06 01:36 33.02745 114.69785 28134 ft 462 kts 189°
2026-05-06 01:36 32.99536 114.69462 28363 ft 464 kts 189°
2026-05-06 01:37 32.96323 114.69143 28590 ft 466 kts 188°
2026-05-06 01:37 32.93068 114.68825 28806 ft 468 kts 188°
2026-05-06 01:37 32.89801 114.68505 29035 ft 470 kts 188°
2026-05-06 01:37 32.86551 114.68192 29339 ft 469 kts 188°
2026-05-06 01:38 32.83310 114.67883 29667 ft 468 kts 188°
2026-05-06 01:38 32.80076 114.67577 29967 ft 467 kts 189°
2026-05-06 01:38 32.76833 114.67271 30263 ft 467 kts 189°
2026-05-06 01:38 32.73625 114.66967 30555 ft 466 kts 189°
2026-05-06 01:39 32.70348 114.66659 30848 ft 466 kts 189°
2026-05-06 01:39 32.67134 114.66356 31111 ft 466 kts 189°
2026-05-06 01:39 32.63898 114.66051 31369 ft 466 kts 189°
2026-05-06 01:39 32.60655 114.65746 31643 ft 466 kts 189°
2026-05-06 01:40 32.57438 114.65443 31906 ft 466 kts 189°
2026-05-06 01:40 32.54221 114.65143 32192 ft 465 kts 189°
2026-05-06 01:40 32.51001 114.64840 32475 ft 464 kts 189°
2026-05-06 01:40 32.47803 114.64541 32725 ft 463 kts 189°
2026-05-06 01:41 32.44562 114.64238 32971 ft 463 kts 189°
2026-05-06 01:41 32.41373 114.63939 33210 ft 463 kts 189°
2026-05-06 01:41 32.38174 114.63640 33470 ft 463 kts 189°
2026-05-06 01:41 32.34977 114.63332 33736 ft 462 kts 189°
2026-05-06 01:42 32.31778 114.63017 34007 ft 461 kts 189°
2026-05-06 01:42 32.28363 114.62682 34243 ft 462 kts 189°
2026-05-06 01:42 32.25151 114.62365 34444 ft 462 kts 189°
2026-05-06 01:42 32.21950 114.62051 34622 ft 463 kts 189°
2026-05-06 01:43 32.18741 114.61739 34809 ft 464 kts 189°
2026-05-06 01:43 32.15538 114.61430 34990 ft 464 kts 189°
2026-05-06 01:43 32.12307 114.61116 35178 ft 464 kts 189°
2026-05-06 01:43 32.09074 114.60800 35349 ft 465 kts 189°
2026-05-06 01:44 32.05845 114.60489 35501 ft 465 kts 190°
2026-05-06 01:44 32.02651 114.60180 35652 ft 465 kts 189°
2026-05-06 01:44 31.99400 114.59864 35782 ft 466 kts 190°
2026-05-06 01:44 31.96194 114.59553 35909 ft 466 kts 189°
2026-05-06 01:45 31.89691 114.58926 35945 ft 468 kts 190°
2026-05-06 01:45 31.83220 114.58304 35950 ft 468 kts 190°
2026-05-06 01:46 31.76709 114.57678 35953 ft 468 kts 189°
2026-05-06 01:46 31.70207 114.57057 35956 ft 468 kts 190°
2026-05-06 01:47 31.63756 114.56437 35958 ft 467 kts 190°
2026-05-06 01:47 31.57265 114.55812 35963 ft 468 kts 190°
2026-05-06 01:48 31.50787 114.55193 35969 ft 468 kts 189°
2026-05-06 01:48 31.44288 114.54572 35969 ft 468 kts 190°
2026-05-06 01:49 31.37801 114.53957 35974 ft 468 kts 189°
2026-05-06 01:49 31.31329 114.53343 35970 ft 467 kts 189°
2026-05-06 01:50 31.24917 114.52259 35972 ft 460 kts 200°
2026-05-06 01:50 31.19008 114.49728 35976 ft 453 kts 210°
2026-05-06 01:51 31.13318 114.46563 35975 ft 453 kts 211°
2026-05-06 01:51 31.07648 114.43389 35976 ft 453 kts 211°
2026-05-06 01:52 31.01958 114.40229 35975 ft 452 kts 210°
2026-05-06 01:52 30.96285 114.37089 35973 ft 452 kts 210°
2026-05-06 01:53 30.90611 114.33978 35976 ft 453 kts 209°
2026-05-06 01:53 30.84833 114.30960 35973 ft 453 kts 208°
2026-05-06 01:54 30.79110 114.27956 35973 ft 453 kts 210°
2026-05-06 01:54 30.73381 114.24833 35975 ft 453 kts 210°
2026-05-06 01:55 30.67692 114.21730 35974 ft 453 kts 210°
2026-05-06 01:55 30.61966 114.18626 35972 ft 452 kts 210°
2026-05-06 01:56 30.56494 114.15221 35955 ft 443 kts 224°
2026-05-06 01:56 30.54376 114.12637 35966 ft 435 kts 238°
2026-05-06 01:56 30.52920 114.09610 35969 ft 429 kts 251°
2026-05-06 01:57 30.52145 114.06325 35965 ft 425 kts 264°
2026-05-06 01:57 30.52043 114.02902 35974 ft 423 kts 274°
2026-05-06 01:57 30.52666 113.96169 35959 ft 422 kts 278°
2026-05-06 01:58 30.53404 113.89426 35956 ft 423 kts 277°
2026-05-06 01:58 30.54019 113.82680 35956 ft 423 kts 276°
2026-05-06 01:59 30.54527 113.75912 35953 ft 423 kts 275°
2026-05-06 01:59 30.54943 113.69087 35951 ft 423 kts 275°
2026-05-06 02:00 30.55265 113.62298 35949 ft 424 kts 274°
2026-05-06 02:00 30.55496 113.55482 35947 ft 423 kts 273°
2026-05-06 02:01 30.55642 113.48673 35947 ft 424 kts 272°
2026-05-06 02:01 30.55696 113.41861 35945 ft 424 kts 271°
2026-05-06 02:02 30.55660 113.35050 35947 ft 425 kts 271°
2026-05-06 02:02 30.55538 113.28207 35943 ft 424 kts 269°
2026-05-06 02:03 30.55326 113.21410 35941 ft 424 kts 269°
2026-05-06 02:03 30.55082 113.14594 35936 ft 424 kts 269°
2026-05-06 02:04 30.54805 113.07769 35933 ft 424 kts 268°
2026-05-06 02:04 30.54513 113.00991 35929 ft 424 kts 268°
2026-05-06 02:05 30.54218 112.94179 35927 ft 424 kts 268°
2026-05-06 02:05 30.53925 112.87347 35926 ft 424 kts 268°
2026-05-06 02:06 30.53637 112.80567 35928 ft 424 kts 268°
2026-05-06 02:06 30.53340 112.73737 35924 ft 424 kts 268°
2026-05-06 02:07 30.53039 112.66927 35921 ft 424 kts 268°
2026-05-06 02:07 30.52733 112.60106 35923 ft 423 kts 268°
2026-05-06 02:08 30.52423 112.53323 35924 ft 423 kts 268°
2026-05-06 02:08 30.52112 112.46557 35926 ft 423 kts 268°
2026-05-06 02:09 30.51797 112.39771 35929 ft 423 kts 268°
2026-05-06 02:09 30.51476 112.32974 35926 ft 423 kts 268°
2026-05-06 02:10 30.51153 112.26176 35923 ft 424 kts 268°
2026-05-06 02:10 30.50825 112.19397 35923 ft 423 kts 268°
2026-05-06 02:11 30.50496 112.12586 35919 ft 423 kts 267°
2026-05-06 02:11 30.50161 112.05784 35915 ft 423 kts 267°
2026-05-06 02:12 30.49823 111.99026 35910 ft 423 kts 268°
2026-05-06 02:12 30.49483 111.92255 35905 ft 423 kts 267°
2026-05-06 02:13 30.49135 111.85437 35912 ft 422 kts 267°
2026-05-06 02:13 30.48810 111.79123 35919 ft 422 kts 267°
2026-05-06 02:14 30.48456 111.72336 35916 ft 422 kts 267°
2026-05-06 02:14 30.48099 111.65550 35933 ft 421 kts 267°
2026-05-06 02:15 30.47735 111.58787 35924 ft 421 kts 268°
2026-05-06 02:15 30.47371 111.52052 35937 ft 420 kts 267°
2026-05-06 02:16 30.46737 111.45339 35939 ft 421 kts 263°
2026-05-06 02:16 30.45831 111.38686 35951 ft 420 kts 262°
2026-05-06 02:17 30.44916 111.32024 35959 ft 420 kts 262°
2026-05-06 02:17 30.43991 111.25353 35973 ft 420 kts 262°
2026-05-06 02:18 30.43067 111.18692 35989 ft 419 kts 262°
2026-05-06 02:18 30.42137 111.12019 36000 ft 420 kts 262°
2026-05-06 02:19 30.41205 111.05378 36019 ft 419 kts 262°
2026-05-06 02:19 30.40271 110.98737 36038 ft 420 kts 262°
2026-05-06 02:20 30.38860 110.88763 36064 ft 418 kts 262°
2026-05-06 02:21 30.37916 110.82137 36090 ft 418 kts 262°
2026-05-06 02:21 30.36973 110.75532 36110 ft 417 kts 262°
2026-05-06 02:22 30.36020 110.68883 36119 ft 418 kts 262°
2026-05-06 02:22 30.35068 110.62266 36107 ft 418 kts 262°
2026-05-06 02:23 30.34118 110.55685 36101 ft 418 kts 262°
2026-05-06 02:23 30.33155 110.49047 36103 ft 418 kts 262°
2026-05-06 02:24 30.32210 110.42537 36091 ft 418 kts 262°
2026-05-06 02:24 30.31244 110.35928 36092 ft 418 kts 262°
2026-05-06 02:25 30.30276 110.29318 36092 ft 418 kts 261°
2026-05-06 02:25 30.29302 110.22702 36102 ft 417 kts 261°
2026-05-06 02:26 30.28326 110.16084 36109 ft 418 kts 261°
2026-05-06 02:26 30.27350 110.09505 36125 ft 418 kts 262°
2026-05-06 02:27 30.26365 110.02879 36127 ft 418 kts 261°
2026-05-06 02:27 30.25378 109.96276 36142 ft 417 kts 261°
2026-05-06 02:28 30.24392 109.89713 36142 ft 417 kts 262°
2026-05-06 02:28 30.23405 109.83140 36130 ft 417 kts 261°
2026-05-06 02:29 30.22406 109.76520 36126 ft 418 kts 262°
2026-05-06 02:29 30.21409 109.69944 36117 ft 417 kts 261°
2026-05-06 02:30 30.20396 109.63348 36096 ft 417 kts 260°
2026-05-06 02:30 30.19011 109.56872 36073 ft 418 kts 255°
2026-05-06 02:31 30.17321 109.50459 36068 ft 418 kts 255°
2026-05-06 02:31 30.15626 109.44057 36053 ft 418 kts 255°
2026-05-06 02:32 30.13939 109.37703 36049 ft 417 kts 255°
2026-05-06 02:32 30.12232 109.31302 36053 ft 418 kts 255°
2026-05-06 02:33 30.10527 109.24913 36053 ft 418 kts 255°
2026-05-06 02:33 30.09954 109.22767 36055 ft 418 kts 255°
2026-05-06 02:34 30.07103 109.12155 36058 ft 418 kts 255°
2026-05-06 02:34 30.05369 109.05730 36060 ft 418 kts 255°
2026-05-06 02:35 30.03638 108.99344 36057 ft 418 kts 255°
2026-05-06 02:35 30.01935 108.92964 36056 ft 418 kts 255°
2026-05-06 02:36 30.00256 108.86555 36049 ft 418 kts 255°
2026-05-06 02:36 29.98574 108.80166 36046 ft 417 kts 255°
2026-05-06 02:37 29.96886 108.73777 36043 ft 418 kts 255°
2026-05-06 02:37 29.95192 108.67370 36040 ft 417 kts 255°
2026-05-06 02:38 29.93502 108.60980 36032 ft 417 kts 255°
2026-05-06 02:38 29.91807 108.54596 36021 ft 417 kts 255°
2026-05-06 02:39 29.90112 108.48241 36014 ft 417 kts 255°
2026-05-06 02:39 29.88418 108.41882 36017 ft 417 kts 255°
2026-05-06 02:40 29.86715 108.35497 36029 ft 417 kts 255°
2026-05-06 02:40 29.85014 108.29144 36037 ft 417 kts 255°
2026-05-06 02:41 29.83309 108.22778 36051 ft 416 kts 255°
2026-05-06 02:41 29.81591 108.16394 36053 ft 418 kts 255°
2026-05-06 02:42 29.79873 108.10021 36027 ft 417 kts 255°
2026-05-06 02:42 29.78164 108.03698 36007 ft 417 kts 255°
2026-05-06 02:43 29.76440 107.97329 35985 ft 418 kts 255°
2026-05-06 02:43 29.74706 107.90946 35981 ft 417 kts 255°
2026-05-06 02:44 29.72981 107.84595 35992 ft 418 kts 255°
2026-05-06 02:44 29.71249 107.78252 36001 ft 417 kts 255°
2026-05-06 02:45 29.69509 107.71892 36012 ft 417 kts 255°
2026-05-06 02:45 29.67822 107.65539 36009 ft 415 kts 258°
2026-05-06 02:46 29.66893 107.59031 35994 ft 414 kts 267°
2026-05-06 02:46 29.66933 107.52425 35982 ft 414 kts 275°
2026-05-06 02:47 29.67932 107.45960 35970 ft 415 kts 284°
2026-05-06 02:47 29.69559 107.39606 35960 ft 415 kts 285°
2026-05-06 02:48 29.70980 107.33165 35948 ft 415 kts 282°
2026-05-06 02:48 29.72517 107.26776 35924 ft 416 kts 289°
2026-05-06 02:49 29.74939 107.20770 35904 ft 418 kts 297°
2026-05-06 02:49 29.78272 107.15226 35900 ft 423 kts 306°
2026-05-06 02:50 29.82365 107.10397 35903 ft 427 kts 313°
2026-05-06 02:50 29.86738 107.05798 35902 ft 426 kts 313°
2026-05-06 02:51 29.91128 107.01202 35909 ft 425 kts 314°
2026-05-06 02:51 29.95508 106.96616 35912 ft 426 kts 313°
2026-05-06 02:52 29.99877 106.92031 35918 ft 426 kts 313°
2026-05-06 02:52 30.04263 106.87421 35920 ft 426 kts 313°
2026-05-06 02:53 30.08639 106.82817 35925 ft 427 kts 314°
2026-05-06 02:53 30.13022 106.78212 35924 ft 426 kts 314°
2026-05-06 02:54 30.17390 106.73618 35924 ft 427 kts 314°
2026-05-06 02:54 30.21788 106.68979 35907 ft 427 kts 313°
2026-05-06 02:55 30.26153 106.64362 35894 ft 427 kts 313°
2026-05-06 02:55 30.30559 106.59699 35900 ft 428 kts 313°
2026-05-06 02:56 30.34921 106.55069 35897 ft 428 kts 314°
2026-05-06 02:56 30.37108 106.52747 35642 ft 429 kts 314°
2026-05-06 02:56 30.39308 106.50408 35353 ft 426 kts 314°
2026-05-06 02:56 30.41466 106.48117 35088 ft 424 kts 314°
2026-05-06 02:57 30.43657 106.45787 34816 ft 422 kts 314°
2026-05-06 02:57 30.45805 106.43498 34551 ft 423 kts 314°
2026-05-06 02:57 30.47987 106.41170 34287 ft 425 kts 314°
2026-05-06 02:57 30.50135 106.38876 34034 ft 426 kts 314°
2026-05-06 02:58 30.52322 106.36542 33767 ft 428 kts 314°
2026-05-06 02:58 30.54511 106.34203 33505 ft 431 kts 314°
2026-05-06 02:58 30.56716 106.31806 33233 ft 432 kts 312°
2026-05-06 02:58 30.58758 106.29319 32929 ft 428 kts 308°
2026-05-06 02:59 30.60669 106.26672 32256 ft 426 kts 305°
2026-05-06 02:59 30.62397 106.23921 31302 ft 429 kts 301°
2026-05-06 02:59 30.64038 106.20999 30262 ft 434 kts 300°
2026-05-06 02:59 30.65648 106.18064 29207 ft 439 kts 300°
2026-05-06 03:00 30.67296 106.15050 28205 ft 441 kts 300°
2026-05-06 03:00 30.68916 106.12092 27540 ft 435 kts 301°
2026-05-06 03:00 30.70534 106.09145 26910 ft 429 kts 301°
2026-05-06 03:00 30.72089 106.06256 26222 ft 425 kts 297°
2026-05-06 03:01 30.73189 106.03080 25480 ft 421 kts 284°
2026-05-06 03:01 30.73591 105.99764 24779 ft 418 kts 271°
2026-05-06 03:01 30.73358 105.96436 24076 ft 416 kts 262°
2026-05-06 03:01 30.72904 105.93153 23404 ft 413 kts 262°
2026-05-06 03:02 30.72428 105.89841 22735 ft 410 kts 262°
2026-05-06 03:02 30.71961 105.86606 22080 ft 408 kts 262°
2026-05-06 03:02 30.71394 105.82657 21294 ft 405 kts 262°
2026-05-06 03:02 30.70932 105.79427 20657 ft 403 kts 262°
2026-05-06 03:03 30.70476 105.76229 20036 ft 400 kts 262°
2026-05-06 03:03 30.70028 105.73094 19451 ft 397 kts 262°
2026-05-06 03:03 30.69581 105.69965 18846 ft 395 kts 263°
2026-05-06 03:03 30.69131 105.66826 18221 ft 393 kts 263°
2026-05-06 03:04 30.68679 105.63677 17622 ft 391 kts 263°
2026-05-06 03:04 30.68238 105.60597 17046 ft 389 kts 263°
2026-05-06 03:04 30.67796 105.57503 16492 ft 386 kts 262°
2026-05-06 03:04 30.67359 105.54456 15969 ft 383 kts 262°
2026-05-06 03:05 30.66929 105.51460 15462 ft 379 kts 262°
2026-05-06 03:05 30.66494 105.48448 14938 ft 376 kts 262°
2026-05-06 03:05 30.66063 105.45473 14432 ft 373 kts 261°
2026-05-06 03:05 30.65634 105.42514 13901 ft 370 kts 261°
2026-05-06 03:06 30.65213 105.39611 13412 ft 366 kts 260°
2026-05-06 03:06 30.64790 105.36708 12891 ft 363 kts 260°
2026-05-06 03:06 30.64368 105.33833 12338 ft 361 kts 260°
2026-05-06 03:06 30.63916 105.30992 11775 ft 359 kts 257°
2026-05-06 03:07 30.63306 105.28218 11222 ft 357 kts 254°
2026-05-06 03:07 30.62525 105.25520 10653 ft 355 kts 250°
2026-05-06 03:07 30.61559 105.22868 10185 ft 349 kts 245°
2026-05-06 03:07 30.60482 105.20434 9975 ft 337 kts 242°
2026-05-06 03:08 30.59289 105.18148 9766 ft 326 kts 237°
2026-05-06 03:08 30.57995 105.16014 9574 ft 315 kts 233°
2026-05-06 03:08 30.56643 105.14078 9388 ft 305 kts 230°
2026-05-06 03:08 30.55277 105.12253 9183 ft 297 kts 230°
2026-05-06 03:09 30.53928 105.10455 8836 ft 294 kts 230°
2026-05-06 03:09 30.52591 105.08673 8455 ft 293 kts 230°
2026-05-06 03:09 30.51270 105.06909 8091 ft 291 kts 231°
2026-05-06 03:09 30.49943 105.05138 7730 ft 290 kts 231°
2026-05-06 03:10 30.48625 105.03374 7361 ft 289 kts 231°
2026-05-06 03:10 30.47305 105.01611 6982 ft 288 kts 231°
2026-05-06 03:10 30.46005 104.99873 6627 ft 286 kts 231°
2026-05-06 03:10 30.44701 104.98132 6261 ft 286 kts 231°
2026-05-06 03:11 30.43407 104.96405 5871 ft 285 kts 231°
2026-05-06 03:11 30.42109 104.94664 5486 ft 285 kts 232°
2026-05-06 03:11 30.40900 104.92866 5113 ft 284 kts 237°
2026-05-06 03:11 30.39819 104.90961 4931 ft 281 kts 241°
2026-05-06 03:12 30.38874 104.88957 4928 ft 283 kts 246°
2026-05-06 03:12 30.38079 104.86889 4928 ft 282 kts 251°
2026-05-06 03:12 30.37427 104.84759 4928 ft 281 kts 255°
2026-05-06 03:12 30.36827 104.82619 4931 ft 281 kts 255°
2026-05-06 03:13 30.36221 104.80450 4924 ft 281 kts 255°
2026-05-06 03:13 30.35624 104.78313 4924 ft 280 kts 255°
2026-05-06 03:13 30.35022 104.76173 4923 ft 280 kts 255°
2026-05-06 03:13 30.34413 104.74016 4924 ft 280 kts 255°
2026-05-06 03:14 30.33811 104.71890 4927 ft 281 kts 255°
2026-05-06 03:14 30.33195 104.69719 4932 ft 282 kts 255°
2026-05-06 03:14 30.32588 104.67577 4933 ft 282 kts 255°
2026-05-06 03:14 30.31974 104.65416 4930 ft 281 kts 255°
2026-05-06 03:15 30.31363 104.63266 4929 ft 281 kts 254°
2026-05-06 03:15 30.30754 104.61127 4927 ft 282 kts 254°
2026-05-06 03:15 30.30143 104.58979 4923 ft 282 kts 255°
2026-05-06 03:15 30.29524 104.56806 4923 ft 281 kts 254°
2026-05-06 03:16 30.28920 104.54684 4924 ft 281 kts 255°
2026-05-06 03:16 30.28372 104.52493 4924 ft 280 kts 258°
2026-05-06 03:16 30.27951 104.50294 4926 ft 280 kts 263°
2026-05-06 03:16 30.27655 104.48076 4930 ft 280 kts 266°
2026-05-06 03:17 30.27486 104.45859 4929 ft 278 kts 270°
2026-05-06 03:17 30.27382 104.43631 4927 ft 278 kts 270°
2026-05-06 03:17 30.27282 104.41393 4927 ft 278 kts 270°
2026-05-06 03:17 30.27177 104.39141 4928 ft 279 kts 270°
2026-05-06 03:18 30.27073 104.36913 4938 ft 280 kts 270°
2026-05-06 03:18 30.26967 104.34662 4939 ft 278 kts 269°
2026-05-06 03:18 30.26862 104.32417 4937 ft 279 kts 269°
2026-05-06 03:18 30.26757 104.30199 4940 ft 279 kts 270°
2026-05-06 03:19 30.26648 104.27969 4933 ft 278 kts 269°
2026-05-06 03:19 30.26540 104.25732 4931 ft 271 kts 269°
2026-05-06 03:19 30.26433 104.23623 4928 ft 255 kts 270°
2026-05-06 03:19 30.26334 104.21658 4932 ft 240 kts 270°
2026-05-06 03:20 30.26152 104.17975 4951 ft 225 kts 270°
2026-05-06 03:20 30.26067 104.16170 4955 ft 225 kts 270°
2026-05-06 03:20 30.25979 104.14360 4953 ft 225 kts 270°
2026-05-06 03:21 30.25919 104.12564 4954 ft 224 kts 274°
2026-05-06 03:21 30.26020 104.10771 4952 ft 222 kts 281°
2026-05-06 03:21 30.26308 104.09020 4948 ft 220 kts 289°
2026-05-06 03:21 30.26771 104.07341 4947 ft 219 kts 295°
2026-05-06 03:22 30.27335 104.05725 4950 ft 219 kts 296°
2026-05-06 03:22 30.27914 104.04096 4943 ft 218 kts 296°
2026-05-06 03:22 30.28489 104.02477 4950 ft 218 kts 296°
2026-05-06 03:22 30.29063 104.00849 4951 ft 218 kts 296°
2026-05-06 03:23 30.29496 103.99143 4942 ft 223 kts 278°
2026-05-06 03:23 30.29349 103.97352 4948 ft 228 kts 255°
2026-05-06 03:23 30.28614 103.95721 4948 ft 232 kts 232°
2026-05-06 03:23 30.27391 103.94517 4944 ft 235 kts 208°
2026-05-06 03:24 30.25894 103.93758 4969 ft 235 kts 201°
2026-05-06 03:24 30.24361 103.93096 4963 ft 234 kts 200°
2026-05-06 03:24 30.22847 103.92439 4947 ft 227 kts 201°
2026-05-06 03:24 30.21402 103.91791 4837 ft 218 kts 201°
2026-05-06 03:25 30.20006 103.91153 4672 ft 212 kts 201°
2026-05-06 03:25 30.18642 103.90523 4545 ft 202 kts 201°
2026-05-06 03:25 30.17340 103.89920 4202 ft 205 kts 201°
2026-05-06 03:25 30.16011 103.89307 3957 ft 208 kts 201°
2026-05-06 03:26 30.14645 103.88675 3938 ft 210 kts 201°
2026-05-06 03:26 30.13284 103.88044 3931 ft 211 kts 201°
2026-05-06 03:26 30.11928 103.87412 3925 ft 211 kts 202°
2026-05-06 03:26 30.10743 103.86460 3909 ft 209 kts 235°
2026-05-06 03:27 30.10289 103.84916 3930 ft 202 kts 273°
2026-05-06 03:27 30.10618 103.83384 3948 ft 196 kts 296°
2026-05-06 03:27 30.11167 103.81942 3948 ft 197 kts 298°
2026-05-06 03:27 30.11731 103.80489 3953 ft 197 kts 297°
2026-05-06 03:28 30.12280 103.79030 3957 ft 198 kts 297°
2026-05-06 03:28 30.12849 103.77603 3949 ft 196 kts 307°
2026-05-06 03:28 30.13874 103.76659 3945 ft 187 kts 344°
2026-05-06 03:28 30.15139 103.76598 3954 ft 181 kts 16°
2026-05-06 03:29 30.16309 103.77117 3963 ft 180 kts 24°
2026-05-06 03:29 30.17477 103.77674 3959 ft 180 kts 24°
2026-05-06 03:29 30.18634 103.78223 3958 ft 179 kts 23°
2026-05-06 03:29 30.19793 103.78767 3953 ft 180 kts 23°
2026-05-06 03:30 30.20953 103.79308 3957 ft 180 kts 23°
2026-05-06 03:30 30.22127 103.79855 3961 ft 181 kts 22°
2026-05-06 03:30 30.23297 103.80397 3957 ft 181 kts 23°
2026-05-06 03:30 30.24475 103.80942 3957 ft 181 kts 23°
2026-05-06 03:31 30.25637 103.81480 3955 ft 180 kts 23°
2026-05-06 03:31 30.26816 103.82024 3956 ft 180 kts 23°
2026-05-06 03:31 30.27980 103.82563 3956 ft 180 kts 23°
2026-05-06 03:31 30.29136 103.83099 3955 ft 179 kts 23°
2026-05-06 03:32 30.30295 103.83635 3956 ft 179 kts 23°
2026-05-06 03:32 30.31410 103.84151 3954 ft 160 kts 23°
2026-05-06 03:32 30.32354 103.84586 3917 ft 135 kts 23°
2026-05-06 03:32 30.33300 103.85026 3966 ft 154 kts 23°
2026-05-06 03:33 30.34310 103.85496 3962 ft 157 kts 23°
2026-05-06 03:33 30.35330 103.85970 3957 ft 158 kts 23°
2026-05-06 03:33 30.36351 103.86443 3954 ft 158 kts 23°
2026-05-06 03:33 30.37369 103.86908 3931 ft 147 kts 23°
2026-05-06 03:34 30.38243 103.87301 3888 ft 128 kts 23°
2026-05-06 03:34 30.39071 103.87677 3911 ft 126 kts 24°
2026-05-06 03:34 30.39890 103.88054 3922 ft 126 kts 24°
2026-05-06 03:34 30.40699 103.88428 3915 ft 126 kts 24°
2026-05-06 03:35 30.41519 103.88808 3763 ft 125 kts 24°
2026-05-06 03:35 30.42331 103.89186 3607 ft 125 kts 24°
2026-05-06 03:35 30.43132 103.89558 3449 ft 124 kts 24°
2026-05-06 03:35 30.43939 103.89934 3293 ft 123 kts 24°
2026-05-06 03:36 30.44731 103.90303 3135 ft 123 kts 24°
2026-05-06 03:36 30.45520 103.90671 2986 ft 123 kts 24°
2026-05-06 03:36 30.46319 103.91042 2824 ft 122 kts 24°
2026-05-06 03:36 30.47111 103.91412 2671 ft 122 kts 24°
2026-05-06 03:37 30.47899 103.91779 2517 ft 123 kts 23°
2026-05-06 03:37 30.48702 103.92153 2362 ft 123 kts 23°
2026-05-06 03:37 30.49501 103.92526 2194 ft 124 kts 23°
2026-05-06 03:37 30.50302 103.92891 2064 ft 125 kts 22°
2026-05-06 03:38 30.51115 103.93267 1888 ft 125 kts 23°
2026-05-06 03:38 30.51930 103.93647 1740 ft 126 kts 23°
2026-05-06 03:38 30.52723 103.94018 1689 ft 115 kts 22°
2026-05-06 03:38 30.53317 103.94303 1689 ft 66 kts 22°
2026-05-06 03:39 30.53578 103.94424 1689 ft 22 kts 22°
2026-05-06 03:39 30.53726 103.94463 1689 ft 21 kts 10°
2026-05-06 03:39 30.53867 103.94460 1689 ft 18 kts 353°
2026-05-06 03:39 30.53992 103.94441 1689 ft 18 kts 352°
2026-05-06 03:40 30.54118 103.94452 1689 ft 18 kts 21°
2026-05-06 03:40 30.54236 103.94507 1689 ft 18 kts 22°
2026-05-06 03:40 30.54352 103.94563 1689 ft 18 kts 22°
2026-05-06 03:40 30.54471 103.94616 1689 ft 18 kts 21°
2026-05-06 03:41 30.54587 103.94669 1689 ft 18 kts 23°
2026-05-06 03:41 30.54691 103.94720 1689 ft 15 kts 23°
2026-05-06 03:41 30.54793 103.94757 1689 ft 15 kts 354°
2026-05-06 03:41 30.54863 103.94672 1689 ft 15 kts 309°
2026-05-06 03:42 30.54957 103.94614 1689 ft 15 kts 338°
2026-05-06 03:42 30.55061 103.94563 1689 ft 16 kts 338°
2026-05-06 03:42 30.55168 103.94511 1689 ft 16 kts 333°
2026-05-06 03:42 30.55273 103.94453 1689 ft 16 kts 338°
2026-05-06 03:43 30.55383 103.94400 1689 ft 17 kts 336°
2026-05-06 03:43 30.55501 103.94342 1689 ft 19 kts 336°
2026-05-06 03:43 30.55629 103.94278 1689 ft 20 kts 337°
2026-05-06 03:43 30.55769 103.94218 1689 ft 21 kts 347°
2026-05-06 03:44 30.55917 103.94224 1689 ft 20 kts 19°
2026-05-06 03:44 30.56050 103.94288 1689 ft 20 kts 22°
2026-05-06 03:44 30.56183 103.94348 1689 ft 21 kts 22°
2026-05-06 03:44 30.56323 103.94414 1689 ft 22 kts 22°
2026-05-06 03:45 30.56468 103.94481 1689 ft 22 kts 22°
2026-05-06 03:45 30.56619 103.94550 1689 ft 23 kts 22°
2026-05-06 03:45 30.56758 103.94616 1689 ft 20 kts 22°
2026-05-06 03:45 30.56879 103.94668 1689 ft 18 kts 14°
2026-05-06 03:46 30.56937 103.94744 1689 ft 13 kts 114°
2026-05-06 03:46 30.56900 103.94846 1689 ft 14 kts 111°
2026-05-06 03:46 30.56907 103.94926 1689 ft 10 kts 44°
2026-05-06 03:46 30.56939 103.94942 1689 ft 3 kts 18°
2026-05-06 03:47 30.56950 103.94947 1689 ft 0 kts 20°